Location: Nachod
(50.4170°N, 16.1670°E)
Time: 11:56:49
(UTC+01:00)

Envisat - Visible Passes

Search period start: 28 November 2020 00:00
Search period end: 08 December 2020 00:00
Orbit: 764 x 766 km, 98.1° (Epoch: 28 November)

Date Brightness Start Highest point End Pass type
(mag) Time Alt. Az. Time Alt. Az. Time Alt. Az.
28 Nov 5.5 04:51:31 10° NE 04:55:30 22° E 04:59:26 10° SE visible
28 Nov 3.0 06:29:53 10° N 06:34:54 59° WNW 06:39:53 10° SSW visible
28 Nov 5.1 17:50:05 10° SSW 17:54:28 28° W 17:58:51 10° NNW visible
29 Nov 6.3 04:16:49 10° ENE 04:18:09 11° E 04:19:29 10° E visible
29 Nov 3.3 05:53:01 10° NNE 05:58:07 72° ESE 06:03:11 10° S visible
29 Nov 3.8 17:12:26 10° S 17:17:25 56° W 17:22:26 10° NNW visible
30 Nov 4.6 05:16:27 10° NNE 05:21:09 36° E 05:25:47 10° SSE visible
30 Nov 3.5 06:55:31 10° N 07:00:11 37° WNW 07:04:50 10° SW visible
30 Nov 3.0 16:35:31 10° SSE 16:40:33 74° ENE 16:45:40 10° N visible
30 Nov 5.9 18:16:46 10° SW 18:20:10 18° W 18:23:35 10° NW visible
01 Dec 5.7 04:40:28 10° NE 04:43:57 18° E 04:47:27 10° SE visible
01 Dec 2.9 06:18:27 10° N 06:23:33 72° WNW 06:28:35 10° SSW visible
01 Dec 4.7 17:38:22 10° SSW 17:42:59 35° W 17:47:38 10° NNW visible
02 Dec 3.7 05:41:40 10° NNE 05:46:42 58° E 05:51:42 10° S visible
02 Dec 3.4 17:00:56 10° S 17:06:00 70° WSW 17:11:06 10° NNW visible
02 Dec 6.3 18:44:56 10° W 18:45:59 11° W 18:47:02 10° WNW visible
03 Dec 5.0 05:05:14 10° NNE 05:09:40 29° E 05:14:04 10° SSE visible
03 Dec 3.3 06:44:01 10° N 06:48:52 45° WNW 06:53:41 10° SW visible
03 Dec 3.0 16:24:13 10° SSE 16:29:12 61° ENE 16:34:14 10° N visible
03 Dec 5.6 18:04:45 10° SW 18:08:38 22° W 18:12:33 10° NW visible
04 Dec 6.0 04:29:34 10° NE 04:32:25 15° E 04:35:16 10° ESE visible
04 Dec 3.0 06:07:02 10° NNE 06:12:10 88° WNW 06:17:15 10° SSW visible
04 Dec 4.3 17:26:42 10° S 17:31:31 43° W 17:36:22 10° NNW visible
05 Dec 4.1 05:30:20 10° NNE 05:35:16 47° E 05:40:09 10° S visible
05 Dec 3.1 16:49:30 10° SSE 16:54:35 85° WSW 16:59:43 10° NNW visible
05 Dec 6.1 18:31:58 10° WSW 18:34:24 13° W 18:36:51 10° WNW visible
06 Dec 5.3 04:54:03 10° NE 04:58:10 24° E 05:02:15 10° SE visible
06 Dec 3.1 06:32:33 10° N 06:37:32 55° WNW 06:42:28 10° SW visible
06 Dec 5.2 17:52:53 10° SSW 17:57:08 27° W 18:01:25 10° NW visible
07 Dec 6.2 04:18:58 10° ENE 04:20:51 12° E 04:22:44 10° ESE visible
07 Dec 3.2 05:55:39 10° NNE 06:00:46 77° ESE 06:05:51 10° S visible
07 Dec 3.9 17:15:07 10° S 17:20:04 52° W 17:25:04 10° NNW visible
